• In Uzbekistan
  • List of Countries
  • For 7 days
  • Water Temperature
  • Satellite Maps
  • Weather Map
  • Weather Widgets
  • user-avatar
    Login

    Hourly Weather Zatwarnica

    Today, 26 September, Wednesday

    Time Temperature Precipitation Wind Pressure Humidity
    00:00 +2°C° 0 mm 2 mps 729 mmHg 79%
    01:00 +1°C° 0 mm 2 mps 729 mmHg 81%
    02:00 +1°C° 0 mm 1 mps 729 mmHg 86%
    03:00 +1°C° 0 mm 1 mps 730 mmHg 87%
    04:00 +1°C° 0 mm 1 mps 730 mmHg 88%
    05:00 +1°C° 0 mm 1 mps 730 mmHg 89%
    06:00 +2°C° 0 mm 1 mps 730 mmHg 85%
    07:00 +3°C° 0 mm 1 mps 730 mmHg 80%
    08:00 +4°C° 0 mm 1 mps 731 mmHg 75%
    09:00 +6°C° 0 mm 1 mps 731 mmHg 65%
    10:00 +7°C° 0 mm 2 mps 731 mmHg 54%
    11:00 +9°C° 0 mm 2 mps 731 mmHg 44%
    12:00 +10°C° 0 mm 2 mps 731 mmHg 41%
    13:00 +12°C° 0 mm 1 mps 730 mmHg 38%
    14:00 +13°C° 0 mm 1 mps 730 mmHg 35%
    15:00 +13°C° 0 mm 1 mps 729 mmHg 39%
    16:00 +12°C° 0 mm 1 mps 729 mmHg 44%
    17:00 +12°C° 0 mm 1 mps 728 mmHg 48%
    18:00 +9°C° 0 mm 2 mps 728 mmHg 50%
    19:00 +8°C° 0 mm 2 mps 728 mmHg 52%
    20:00 +7°C° 0 mm 2 mps 728 mmHg 54%
    21:00 +7°C° 0 mm 2 mps 728 mmHg 54%
    22:00 +6°C° 0 mm 2 mps 728 mmHg 55%
    23:00 +5°C° 0 mm 3 mps 727 mmHg 55%

    Tomorrow, 27 September, Thursday

    Time Temperature Precipitation Wind Pressure Humidity
    00:00 +5°C° 0 mm 3 mps 727 mmHg 55%
    01:00 +5°C° 0 mm 3 mps 727 mmHg 55%
    02:00 +7°C° 0 mm 3 mps 726 mmHg 55%
    03:00 +5°C° 0 mm 3 mps 726 mmHg 55%
    04:00 +5°C° 0 mm 3 mps 726 mmHg 54%
    05:00 +5°C° 0 mm 3 mps 725 mmHg 54%
    06:00 +7°C° 0 mm 3 mps 725 mmHg 54%
    07:00 +7°C° 0 mm 3 mps 725 mmHg 54%
    08:00 +7°C° 0 mm 3 mps 725 mmHg 54%
    09:00 +7°C° 0 mm 3 mps 725 mmHg 54%
    10:00 +8°C° 0 mm 3 mps 725 mmHg 54%
    11:00 +8°C° 0 mm 3 mps 725 mmHg 55%
    12:00 +9°C° 0 mm 3 mps 725 mmHg 54%
    13:00 +10°C° 0 mm 3 mps 725 mmHg 53%
    14:00 +10°C° 0 mm 3 mps 725 mmHg 53%
    15:00 +11°C° 0 mm 3 mps 725 mmHg 54%
    16:00 +11°C° 0 mm 3 mps 724 mmHg 55%
    17:00 +11°C° 0 mm 3 mps 724 mmHg 55%
    18:00 +9°C° 0 mm 3 mps 724 mmHg 59%
    19:00 +8°C° 0 mm 2 mps 724 mmHg 62%
    20:00 +6°C° 0 mm 2 mps 723 mmHg 66%
    21:00 +6°C° 0 mm 2 mps 723 mmHg 66%
    22:00 +6°C° 0 mm 2 mps 723 mmHg 66%
    23:00 +6°C° 0 mm 2 mps 723 mmHg 66%

    Day after tomorrow, 28 September, Friday

    Time Temperature Precipitation Wind Pressure Humidity
    00:00 +6°C° 0 mm 2 mps 723 mmHg 67%
    01:00 +6°C° 0 mm 2 mps 722 mmHg 67%
    02:00 +6°C° 0 mm 2 mps 721 mmHg 68%
    03:00 +6°C° 0 mm 2 mps 721 mmHg 68%
    04:00 +6°C° 0 mm 2 mps 720 mmHg 68%
    05:00 +6°C° 0 mm 2 mps 720 mmHg 68%
    06:00 +7°C° 0 mm 3 mps 720 mmHg 66%
    07:00 +8°C° 0 mm 3 mps 720 mmHg 64%
    08:00 +8°C° 0 mm 3 mps 720 mmHg 61%
    09:00 +10°C° 0 mm 3 mps 719 mmHg 56%
    10:00 +12°C° 0 mm 4 mps 719 mmHg 51%
    11:00 +14°C° 0 mm 4 mps 719 mmHg 46%
    12:00 +15°C° 0 mm 4 mps 719 mmHg 46%
    13:00 +17°C° 0 mm 3 mps 719 mmHg 46%
    14:00 +18°C° 0 mm 3 mps 718 mmHg 46%
    15:00 +17°C° 0 mm 3 mps 718 mmHg 50%
    16:00 +17°C° 0 mm 2 mps 717 mmHg 54%
    17:00 +16°C° 0 mm 2 mps 717 mmHg 58%
    18:00 +15°C° 0 mm 2 mps 717 mmHg 60%
    19:00 +13°C° 0 mm 1 mps 717 mmHg 63%
    20:00 +12°C° 0 mm 1 mps 717 mmHg 65%
    21:00 +12°C° 0 mm 1 mps 717 mmHg 69%
    22:00 +11°C° 0 mm 1 mps 718 mmHg 72%
    23:00 +11°C° 0 mm 1 mps 718 mmHg 75%

    29 September, Saturday

    Time Temperature Precipitation Wind Pressure Humidity
    00:00 +11°C° 0.1 mm 1 mps 718 mmHg 80%
    01:00 +11°C° 0.1 mm 1 mps 718 mmHg 84%
    02:00 +11°C° 0.1 mm 1 mps 718 mmHg 88%
    03:00 +10°C° 0.3 mm 2 mps 718 mmHg 89%
    04:00 +9°C° 0.3 mm 2 mps 718 mmHg 91%
    05:00 +9°C° 0.3 mm 2 mps 718 mmHg 92%
    06:00 +9°C° 0.6 mm 3 mps 718 mmHg 92%
    07:00 +8°C° 0.6 mm 3 mps 718 mmHg 92%
    08:00 +8°C° 0.6 mm 3 mps 718 mmHg 92%
    09:00 +8°C° 0.9 mm 3 mps 719 mmHg 91%
    10:00 +8°C° 0.9 mm 3 mps 719 mmHg 89%
    11:00 +8°C° 0.9 mm 3 mps 720 mmHg 88%
    12:00 +7°C° 0.4 mm 4 mps 720 mmHg 85%
    13:00 +7°C° 0.4 mm 4 mps 720 mmHg 83%
    14:00 +8°C° 0.4 mm 4 mps 720 mmHg 81%
    15:00 +8°C° 0.1 mm 4 mps 720 mmHg 78%
    16:00 +8°C° 0.1 mm 4 mps 721 mmHg 75%
    17:00 +8°C° 0.1 mm 4 mps 721 mmHg 73%
    18:00 +7°C° 0 mm 4 mps 721 mmHg 73%
    19:00 +5°C° 0 mm 4 mps 722 mmHg 74%
    20:00 +4°C° 0 mm 3 mps 722 mmHg 74%
    21:00 +4°C° 0 mm 3 mps 722 mmHg 75%
    22:00 +3°C° 0 mm 3 mps 723 mmHg 76%
    23:00 +3°C° 0 mm 3 mps 723 mmHg 77%

    30 September, Sunday

    Time Temperature Precipitation Wind Pressure Humidity
    00:00 +2°C° 0 mm 3 mps 723 mmHg 78%
    01:00 +3°C° 0 mm 2 mps 723 mmHg 80%
    02:00 +3°C° 0 mm 2 mps 723 mmHg 82%
    03:00 +2°C° 0 mm 2 mps 723 mmHg 83%
    04:00 +2°C° 0 mm 2 mps 723 mmHg 84%
    05:00 +2°C° 0 mm 2 mps 723 mmHg 85%
    06:00 +3°C° 0 mm 2 mps 723 mmHg 82%
    07:00 +3°C° 0 mm 2 mps 723 mmHg 79%
    08:00 +4°C° 0 mm 2 mps 723 mmHg 76%
    09:00 +5°C° 0 mm 3 mps 723 mmHg 68%
    10:00 +8°C° 0 mm 3 mps 723 mmHg 60%
    11:00 +10°C° 0 mm 3 mps 724 mmHg 52%
    12:00 +11°C° 0 mm 3 mps 723 mmHg 50%
    13:00 +12°C° 0 mm 3 mps 723 mmHg 48%
    14:00 +14°C° 0 mm 2 mps 722 mmHg 47%
    15:00 +14°C° 0 mm 2 mps 722 mmHg 51%
    16:00 +13°C° 0 mm 2 mps 721 mmHg 56%
    17:00 +12°C° 0 mm 2 mps 721 mmHg 60%
    18:00 +9°C° 0 mm 2 mps 721 mmHg 67%
    19:00 +8°C° 0 mm 1 mps 721 mmHg 74%
    20:00 +7°C° 0 mm 1 mps 720 mmHg 82%
    21:00 +6°C° 0 mm 1 mps 720 mmHg 82%
    22:00 +6°C° 0 mm 1 mps 720 mmHg 83%
    23:00 +6°C° 0 mm 1 mps 720 mmHg 84%

    1 October, Monday

    Time Temperature Precipitation Wind Pressure Humidity
    00:00 +6°C° 0 mm 1 mps 719 mmHg 82%
    01:00 +6°C° 0 mm 1 mps 719 mmHg 81%
    02:00 +6°C° 0 mm 1 mps 718 mmHg 79%
    03:00 +6°C° 0 mm 1 mps 718 mmHg 80%
    04:00 +6°C° 0 mm 1 mps 718 mmHg 80%
    05:00 +6°C° 0 mm 1 mps 717 mmHg 80%
    06:00 +7°C° 0 mm 1 mps 717 mmHg 78%
    07:00 +8°C° 0 mm 1 mps 717 mmHg 75%
    08:00 +9°C° 0 mm 1 mps 717 mmHg 73%
    09:00 +11°C° 0 mm 1 mps 717 mmHg 67%
    10:00 +13°C° 0 mm 2 mps 716 mmHg 60%
    11:00 +16°C° 0 mm 2 mps 716 mmHg 54%
    12:00 +16°C° 0 mm 2 mps 716 mmHg 52%
    13:00 +17°C° 0 mm 2 mps 715 mmHg 51%
    14:00 +18°C° 0 mm 2 mps 715 mmHg 50%
    15:00 +17°C° 0 mm 2 mps 715 mmHg 55%
    16:00 +16°C° 0 mm 1 mps 714 mmHg 61%
    17:00 +15°C° 0 mm 1 mps 714 mmHg 67%
    18:00 +13°C° 0.1 mm 1 mps 714 mmHg 71%
    19:00 +12°C° 0.1 mm 1 mps 714 mmHg 76%
    20:00 +11°C° 0.1 mm 1 mps 714 mmHg 80%
    21:00 +11°C° 0.2 mm 1 mps 714 mmHg 83%
    22:00 +11°C° 0.2 mm 1 mps 714 mmHg 86%
    23:00 +10°C° 0.2 mm 1 mps 714 mmHg 88%
    Show more